Location: ??????
(55.7522°N, 37.6156°E)
Time: 17:26:06
(UTC+00:00)

Cosmos 1844 Rocket - Pass Details

Date: 14 June 2025
Orbit: 822 x 844 km, 71.0° (Epoch: 12 July)

Event Time Altitude Azimuth Distance (km) Brightness Sun altitude
Exits shadow 22:54:57 - 244° (WSW) 3,354 5.4 -8.9°
Reaches altitude 10° 22:57:27 10° 252° (WSW) 2,465 4.8 -8.8°
Maximum altitude 23:02:43 38° 320° (NW) 1,268 3.9 -8.5°
Drops below altitude 10° 23:08:01 10° 29° (NNE) 2,478 6.8 -8.2°
Sets 23:10:39 0° 37° (NE) 3,416 7.7 -8.1°
